Date String (YYYY-MM-DD hh:mm:ss) UTC,Instrument flags,Ambient pressure (hPa),Sample flow (lpm),Bypass flow (lpm),Sample temperature (°C),Ambient temperature (°C),ASC tube jacket temperature (°C),LED temperature (°C),Box temperature (°C),Sample RH (%),Span deviation,Mass concentration (μg/m³),Mass concentration (μg/m³),Mass concentration (μg/m³)
DateTimeUTC,F1_M11,P_M11,Q1_M11,Q2_M11,T1_M11,T2_M11,T3_M11,T4_M11,T5_M11,U1_M11,ZSPAN_M11,X0_M11,X2_M11,X1_M11
2022-10-06 03:00:00,,0834.3,5.01,0.00,29.7,28.3,00.0,38.5,31.5,18.7,0000.0,0010.59,0004.52,0004.15
2022-10-06 03:01:00,,0834.3,4.99,0.00,29.7,28.3,00.0,38.5,31.5,18.7,0000.0,0010.58,0004.56,0004.19
2022-10-06 03:02:00,,0834.3,5.02,0.00,29.8,28.4,00.0,38.5,31.6,18.6,0000.0,0009.93,0004.56,0004.21
2022-10-06 03:03:00,,0834.3,4.99,0.00,29.8,28.4,00.0,38.5,31.6,18.6,0000.0,0009.48,0004.55,0004.23
2022-10-06 03:04:00,,0834.3,5.00,0.00,29.8,28.4,00.0,38.5,31.6,18.6,0000.0,0009.74,0004.57,0004.26
2022-10-06 03:05:00,,0834.3,4.99,0.00,29.8,28.4,00.0,38.5,31.6,18.5,0000.0,0009.84,0004.59,0004.29
2022-10-06 03:06:00,,0834.3,5.00,0.00,29.8,28.4,00.0,38.5,31.6,18.5,0000.0,0010.09,0004.63,0004.32
2022-10-06 03:07:00,,0834.3,5.01,0.00,29.8,28.4,00.0,38.5,31.6,18.5,0000.0,0009.93,0004.63,0004.34
2022-10-06 03:08:00,,0834.3,4.98,0.00,29.8,28.4,00.0,38.5,31.6,18.5,0000.0,0009.62,0004.64,0004.37
2022-10-06 03:09:00,,0834.3,5.01,0.00,29.8,28.4,00.0,38.5,31.6,18.5,0000.0,0009.53,0004.64,0004.38
2022-10-06 03:10:00,,0834.3,4.99,0.00,29.8,28.4,00.0,38.5,31.6,18.5,0000.0,0009.17,0004.64,0004.39
2022-10-06 03:11:00,,0834.3,5.01,0.00,29.8,28.4,00.0,38.5,31.6,18.5,0000.0,0009.32,0004.68,0004.39
2022-10-06 03:12:00,,0834.3,4.99,0.00,29.8,28.4,00.0,38.6,31.6,18.5,0000.0,0009.84,0004.68,0004.39
2022-10-06 03:13:00,,0834.3,5.01,0.00,29.8,28.4,00.0,38.6,31.6,18.4,0000.0,0009.95,0004.71,0004.39
2022-10-06 03:14:00,,0834.3,5.00,0.00,29.8,28.4,00.0,38.6,31.5,18.4,0000.0,0010.09,0004.75,0004.40
2022-10-06 03:15:00,,0834.3,4.99,0.00,29.8,28.4,00.0,38.6,31.6,18.4,0000.0,0010.37,0004.79,0004.40
2022-10-06 03:16:00,,0834.3,5.00,0.00,29.8,28.4,00.0,38.6,31.6,18.3,0000.0,0010.15,0004.83,0004.40
2022-10-06 03:17:00,,0834.3,4.99,0.00,29.8,28.4,00.0,38.6,31.6,18.3,0000.0,0009.91,0004.83,0004.41
2022-10-06 03:18:00,,0834.3,5.01,0.00,29.8,28.4,00.0,38.6,31.6,18.2,0000.0,0009.99,0004.87,0004.43
2022-10-06 03:19:00,,0834.3,4.99,0.00,29.8,28.4,00.0,38.6,31.6,18.2,0000.0,0009.75,0004.88,0004.43
2022-10-06 03:20:00,,0834.3,5.01,0.00,29.8,28.4,00.0,38.6,31.6,18.2,0000.0,0009.90,0004.86,0004.43
2022-10-06 03:21:00,,0834.3,4.99,0.00,29.8,28.4,00.0,38.6,31.6,18.1,0000.0,0009.96,0004.86,0004.43
2022-10-06 03:22:00,,0834.3,5.01,0.00,29.9,28.4,00.0,38.6,31.6,18.2,0000.0,0009.28,0004.81,0004.42
2022-10-06 03:23:00,,0834.4,5.00,0.00,29.9,28.4,00.0,38.6,31.6,18.2,0000.0,0008.82,0004.81,0004.44
2022-10-06 03:24:00,,0834.4,4.99,0.00,29.9,28.4,00.0,38.6,31.6,18.1,0000.0,0009.12,0004.81,0004.44
2022-10-06 03:25:00,,0834.4,5.01,0.00,29.9,28.4,00.0,38.6,31.6,18.2,0000.0,0009.43,0004.80,0004.45
2022-10-06 03:26:00,,0834.4,4.99,0.00,29.9,28.4,00.0,38.6,31.6,18.4,0000.0,0008.78,0004.78,0004.45
2022-10-06 03:27:00,,0834.4,5.01,0.00,29.9,28.4,00.0,38.6,31.6,18.3,0000.0,0008.62,0004.72,0004.44
2022-10-06 03:28:00,,0834.4,4.99,0.00,29.9,28.4,00.0,38.6,31.6,18.0,0000.0,0008.76,0004.69,0004.42
2022-10-06 03:29:00,,0834.4,4.99,0.00,29.9,28.4,00.0,38.6,31.6,18.0,0000.0,0009.13,0004.67,0004.42
2022-10-06 03:30:00,,0834.4,5.01,0.00,29.9,28.4,00.0,38.6,31.6,18.2,0000.0,0009.21,0004.67,0004.41
2022-10-06 03:31:00,,0834.4,5.00,0.00,29.9,28.4,00.0,38.7,31.6,18.3,0000.0,0009.05,0004.65,0004.41
2022-10-06 03:32:00,,0834.4,5.00,0.00,29.9,28.4,00.0,38.7,31.6,18.0,0000.0,0009.22,0004.65,0004.41
2022-10-06 03:33:00,,0834.4,5.01,0.00,29.9,28.4,00.0,38.7,31.7,17.8,0000.0,0009.26,0004.65,0004.41
2022-10-06 03:34:00,,0834.4,5.00,0.00,29.9,28.4,00.0,38.7,31.7,17.8,0000.0,0009.58,0004.65,0004.40
2022-10-06 03:35:00,,0834.4,5.01,0.00,29.9,28.4,00.0,38.7,31.7,17.8,0000.0,0009.50,0004.63,0004.39
2022-10-06 03:36:00,,0834.4,4.99,0.00,29.9,28.5,00.0,38.7,31.7,17.6,0000.0,0008.89,0004.61,0004.37
2022-10-06 03:37:00,,0834.4,5.01,0.00,29.9,28.4,00.0,38.7,31.7,17.6,0000.0,0008.86,0004.60,0004.36
2022-10-06 03:38:00,,0834.4,4.99,0.00,29.9,28.4,00.0,38.7,31.7,17.7,0000.0,0008.90,0004.63,0004.36
2022-10-06 03:39:00,,0834.4,5.01,0.00,29.9,28.5,00.0,38.7,31.7,18.3,0000.0,0008.84,0004.67,0004.37
2022-10-06 03:40:00,,0834.4,4.99,0.00,29.9,28.5,00.0,38.7,31.7,18.3,0000.0,0008.44,0004.68,0004.37
2022-10-06 03:41:00,,0834.5,5.01,0.00,29.9,28.4,00.0,38.7,31.7,18.2,0000.0,0008.55,0004.69,0004.39
2022-10-06 03:42:00,,0834.4,5.01,0.00,29.9,28.4,00.0,38.7,31.7,18.1,0000.0,0009.26,0004.73,0004.40
2022-10-06 03:43:00,,0834.4,4.99,0.00,29.9,28.5,00.0,38.7,31.8,18.1,0000.0,0009.04,0004.75,0004.42
2022-10-06 03:44:00,,0834.4,5.01,0.00,29.9,28.4,00.0,38.7,31.7,18.1,0000.0,0009.11,0004.81,0004.45
2022-10-06 03:45:00,,0834.5,4.98,0.00,29.9,28.4,00.0,38.7,31.7,18.2,0000.0,0008.90,0004.84,0004.47
2022-10-06 03:46:00,,0834.5,5.01,0.00,29.9,28.4,00.0,38.7,31.7,18.1,0000.0,0008.93,0004.85,0004.48
2022-10-06 03:47:00,,0834.5,5.00,0.00,29.9,28.4,00.0,38.7,31.7,18.1,0000.0,0008.92,0004.86,0004.51
2022-10-06 03:48:00,,0834.4,5.00,0.00,29.9,28.4,00.0,38.7,31.7,18.1,0000.0,0008.99,0004.89,0004.53
2022-10-06 03:49:00,,0834.5,4.99,0.00,29.9,28.5,00.0,38.7,31.7,18.1,0000.0,0009.06,0004.89,0004.55
2022-10-06 03:50:00,,0834.5,5.01,0.00,29.9,28.4,00.0,38.7,31.7,18.1,0000.0,0009.22,0004.93,0004.56
2022-10-06 03:51:00,,0834.6,5.00,0.00,29.9,28.4,00.0,38.7,31.7,18.2,0000.0,0009.20,0004.96,0004.57
2022-10-06 03:52:00,,0834.5,4.99,0.00,29.9,28.4,00.0,38.7,31.7,18.1,0000.0,0009.17,0005.00,0004.57
2022-10-06 03:53:00,,0834.6,5.01,0.00,29.9,28.4,00.0,38.7,31.7,18.2,0000.0,0008.66,0005.01,0004.57
2022-10-06 03:54:00,,0834.5,4.98,0.00,29.9,28.4,00.0,38.7,31.7,18.2,0000.0,0008.62,0004.99,0004.56
2022-10-06 03:55:00,,0834.5,5.01,0.00,29.9,28.4,00.0,38.7,31.7,18.2,0000.0,0008.56,0004.97,0004.56
2022-10-06 03:56:00,,0834.6,5.00,0.00,29.9,28.4,00.0,38.7,31.7,18.2,0000.0,0008.50,0004.97,0004.56
2022-10-06 03:57:00,,0834.6,4.99,0.00,29.9,28.4,00.0,38.7,31.7,18.2,0000.0,0008.54,0005.00,0004.57
2022-10-06 03:58:00,,0834.6,5.01,0.00,29.9,28.4,00.0,38.7,31.7,18.2,0000.0,0008.95,0005.03,0004.56
2022-10-06 03:59:00,,0834.6,4.98,0.00,29.9,28.4,00.0,38.7,31.7,18.3,0000.0,0009.18,0005.02,0004.57
